Dades meteomassalio
Diari Summary for Maig 7, 2017 Units:  Metric    English   Both
« Previous Day
Next Day »
Diari Semanal Mensual Anual Personalitzat
  Maxima: Minima: Mijana:
Temperatura: 25.6 °C 7.8 °C 16.4 °C
Rosada: 7.9 °C 2.9 °C 5.1 °C
Humitat: 76 % 27 % 51 %
Velocitat del vent: 37.0 km/h 0.0 km/h 10.6 km/h
Racha vent: 37.0 km/h - -
Vent:- - WNW
Pressio: 1021.2 hPa 1017.2 hPa -
Pluja: 0.0 mm    
Historical Graphs
 
 
Tabular Data for Maig 7, 2017
Time Temperature Dew Point Pressure Wind Wind Speed Wind Gust Humidity Rainfall Rate (Hourly) solar Conditions
00:01 13.1 °C 3.2 °C 1019.9 hPa Calm     51 % 0.0 mm 0.0 W/m2 RA
00:06 12.8 °C 2.9 °C 1019.9 hPa Calm     51 % 0.0 mm 0.0 W/m2 CLR
00:07 12.8 °C 3.2 °C 1019.9 hPa Calm     52 % 0.0 mm 0.0 W/m2 CLR
00:12 12.8 °C 3.2 °C 1019.9 hPa Calm     52 % 0.0 mm 0.0 W/m2 CLR
00:17 12.6 °C 3.2 °C 1019.9 hPa Calm     53 % 0.0 mm 0.0 W/m2 CLR
00:22 12.4 °C 3.1 °C 1019.9 hPa Calm     53 % 0.0 mm 0.0 W/m2 CLR
00:27 12.4 °C 3.1 °C 1019.9 hPa Calm     53 % 0.0 mm 0.0 W/m2 CLR
00:32 12.3 °C 3.0 °C 1020.2 hPa Calm     53 % 0.0 mm 0.0 W/m2 CLR
00:37 12.3 °C 3.2 °C 1020.2 hPa Calm     54 % 0.0 mm 0.0 W/m2 CLR
00:42 12.2 °C 3.1 °C 1020.2 hPa Calm     54 % 0.0 mm 0.0 W/m2 CLR
00:47 12.1 °C 3.3 °C 1020.2 hPa Calm     55 % 0.0 mm 0.0 W/m2 CLR
00:52 12.1 °C 3.3 °C 1020.2 hPa Calm     55 % 0.0 mm 0.0 W/m2 CLR
00:57 12.1 °C 3.3 °C 1020.2 hPa Calm     55 % 0.0 mm 0.0 W/m2 CLR
01:02 12.0 °C 3.2 °C 1020.2 hPa Calm     55 % 0.0 mm 0.0 W/m2 CLR
01:07 11.9 °C 3.4 °C 1020.2 hPa Calm     56 % 0.0 mm 0.0 W/m2 CLR
01:12 11.8 °C 3.3 °C 1020.2 hPa Calm     56 % 0.0 mm 0.0 W/m2 CLR
01:17 11.6 °C 3.4 °C 1020.2 hPa Calm     57 % 0.0 mm 0.0 W/m2 CLR
01:22 11.6 °C 3.3 °C 1020.2 hPa Calm     57 % 0.0 mm 0.0 W/m2 CLR
01:27 11.4 °C 3.4 °C 1020.2 hPa Calm     58 % 0.0 mm 0.0 W/m2 CLR
01:33 11.3 °C 3.3 °C 1020.2 hPa Calm     58 % 0.0 mm 0.0 W/m2 CLR
01:38 11.2 °C 3.5 °C 1020.2 hPa Calm     59 % 0.0 mm 0.0 W/m2 CLR
01:43 11.2 °C 3.4 °C 1020.2 hPa Calm     59 % 0.0 mm 0.0 W/m2 CLR
01:48 11.1 °C 3.4 °C 1020.2 hPa Calm     59 % 0.0 mm 0.0 W/m2 CLR
01:53 11.1 °C 3.4 °C 1020.2 hPa Calm     59 % 0.0 mm 0.0 W/m2 CLR
01:58 11.0 °C 3.5 °C 1019.9 hPa Calm     60 % 0.0 mm 0.0 W/m2 CLR
02:03 10.9 °C 3.4 °C 1020.2 hPa Calm     60 % 0.0 mm 0.0 W/m2 CLR
02:08 10.9 °C 3.7 °C 1020.2 hPa Calm     61 % 0.0 mm 0.0 W/m2 CLR
02:13 11.0 °C 3.8 °C 1020.2 hPa Calm     61 % 0.0 mm 0.0 W/m2 CLR
02:18 11.1 °C 3.8 °C 1020.2 hPa Calm     61 % 0.0 mm 0.0 W/m2 CLR
02:23 11.0 °C 3.8 °C 1020.2 hPa Calm     61 % 0.0 mm 0.0 W/m2 CLR
02:28 10.9 °C 3.7 °C 1020.2 hPa Calm     61 % 0.0 mm 0.0 W/m2 CLR
02:33 10.7 °C 3.4 °C 1020.2 hPa Calm     61 % 0.0 mm 0.0 W/m2 CLR
02:38 10.6 °C 3.6 °C 1020.5 hPa Calm     62 % 0.0 mm 0.0 W/m2 CLR
02:43 10.5 °C 3.7 °C 1020.2 hPa Calm     63 % 0.0 mm 0.0 W/m2 CLR
02:48 10.4 °C 3.9 °C 1020.5 hPa Calm     64 % 0.0 mm 0.0 W/m2 CLR
02:53 10.4 °C 3.9 °C 1020.2 hPa Calm     64 % 0.0 mm 0.0 W/m2 CLR
02:58 10.3 °C 3.8 °C 1020.5 hPa Calm     64 % 0.0 mm 0.0 W/m2 CLR
03:03 10.2 °C 3.9 °C 1020.2 hPa Calm     65 % 0.0 mm 0.0 W/m2 CLR
03:08 10.2 °C 3.9 °C 1020.2 hPa Calm     65 % 0.0 mm 0.0 W/m2 CLR
03:13 10.1 °C 3.8 °C 1020.2 hPa Calm     65 % 0.0 mm 0.0 W/m2 CLR
03:18 10.2 °C 4.2 °C 1020.2 hPa Calm     66 % 0.0 mm 0.0 W/m2 CLR
03:23 10.3 °C 4.1 °C 1020.5 hPa Calm     65 % 0.0 mm 0.0 W/m2 CLR
03:28 10.4 °C 4.1 °C 1020.5 hPa Calm     65 % 0.0 mm 0.0 W/m2 CLR
03:33 10.3 °C 4.1 °C 1020.5 hPa Calm     65 % 0.0 mm 0.0 W/m2 CLR
03:38 10.2 °C 3.9 °C 1020.5 hPa Calm     65 % 0.0 mm 0.0 W/m2 CLR
03:43 10.0 °C 3.9 °C 1020.5 hPa Calm     66 % 0.0 mm 0.0 W/m2 CLR
03:48 9.7 °C 3.9 °C 1020.5 hPa Calm     67 % 0.0 mm 0.0 W/m2 CLR
03:53 9.7 °C 3.9 °C 1020.5 hPa Calm     67 % 0.0 mm 0.0 W/m2 CLR
03:58 9.7 °C 3.9 °C 1020.5 hPa Calm     67 % 0.0 mm 0.0 W/m2 CLR
04:03 9.7 °C 3.8 °C 1020.5 hPa Calm     67 % 0.0 mm 0.0 W/m2 CLR
04:08 9.6 °C 4.0 °C 1020.5 hPa Calm     68 % 0.0 mm 0.0 W/m2 CLR
04:13 9.6 °C 4.0 °C 1020.5 hPa Calm     68 % 0.0 mm 0.0 W/m2 CLR
04:18 9.7 °C 4.1 °C 1020.2 hPa Calm     68 % 0.0 mm 0.0 W/m2 CLR
04:23 9.7 °C 3.8 °C 1020.5 hPa Calm     67 % 0.0 mm 0.0 W/m2 CLR
04:28 9.3 °C 3.7 °C 1020.5 hPa Calm     68 % 0.0 mm 0.0 W/m2 CLR
04:33 9.0 °C 3.8 °C 1020.5 hPa Calm     70 % 0.0 mm 0.0 W/m2 CLR
04:38 8.9 °C 3.7 °C 1020.5 hPa Calm     70 % 0.0 mm 0.0 W/m2 CLR
04:43 8.9 °C 3.9 °C 1020.5 hPa Calm     71 % 0.0 mm 0.0 W/m2 CLR
04:48 8.9 °C 3.9 °C 1020.5 hPa Calm     71 % 0.0 mm 0.0 W/m2 CLR
04:53 8.9 °C 3.9 °C 1020.5 hPa Calm     71 % 0.0 mm 0.0 W/m2 CLR
04:58 8.9 °C 3.9 °C 1020.5 hPa Calm     71 % 0.0 mm 0.0 W/m2 CLR
05:03 8.9 °C 3.9 °C 1020.5 hPa Calm     71 % 0.0 mm 0.0 W/m2 CLR
05:08 8.9 °C 3.9 °C 1020.5 hPa Calm     71 % 0.0 mm 0.0 W/m2 CLR
05:13 8.8 °C 3.8 °C 1020.5 hPa Calm     71 % 0.0 mm 0.0 W/m2 CLR
05:18 8.8 °C 3.8 °C 1020.2 hPa Calm     71 % 0.0 mm 0.0 W/m2 CLR
05:23 8.7 °C 3.9 °C 1020.2 hPa Calm     72 % 0.0 mm 0.0 W/m2 CLR
05:24 8.7 °C 3.9 °C 1020.2 hPa Calm     72 % 0.0 mm 0.0 W/m2 CLR
05:29 8.7 °C 3.9 °C 1020.5 hPa Calm     72 % 0.0 mm 0.0 W/m2 CLR
05:34 8.7 °C 3.9 °C 1020.5 hPa Calm     72 % 0.0 mm 0.0 W/m2 CLR
05:39 8.7 °C 3.9 °C 1020.2 hPa Calm     72 % 0.0 mm 0.0 W/m2 CLR
05:44 8.7 °C 3.9 °C 1020.2 hPa Calm     72 % 0.0 mm 0.0 W/m2 CLR
05:49 8.7 °C 3.9 °C 1020.5 hPa Calm     72 % 0.0 mm 0.0 W/m2 CLR
05:54 8.6 °C 3.8 °C 1020.5 hPa Calm     72 % 0.0 mm 0.0 W/m2 CLR
05:59 8.6 °C 3.8 °C 1020.5 hPa Calm     72 % 0.0 mm 0.0 W/m2 CLR
06:04 8.5 °C 3.7 °C 1020.2 hPa Calm     72 % 0.0 mm 0.0 W/m2 CLR
06:09 8.4 °C 3.7 °C 1020.2 hPa Calm     72 % 0.0 mm 0.0 W/m2 CLR
06:14 8.3 °C 3.6 °C 1020.2 hPa Calm     72 % 0.0 mm 0.0 W/m2 CLR
06:19 8.3 °C 3.7 °C 1020.2 hPa Calm     73 % 0.0 mm 0.0 W/m2 CLR
06:24 8.2 °C 3.6 °C 1020.2 hPa Calm     73 % 0.0 mm 0.0 W/m2 CLR
06:29 8.1 °C 3.5 °C 1020.2 hPa Calm     73 % 0.0 mm 0.0 W/m2 CLR
06:34 8.0 °C 3.7 °C 1020.2 hPa Calm     74 % 0.0 mm 0.0 W/m2 CLR
06:39 8.0 °C 3.7 °C 1020.2 hPa Calm     74 % 0.0 mm 0.0 W/m2 CLR
06:44 7.9 °C 3.6 °C 1020.2 hPa Calm     74 % 0.0 mm 0.0 W/m2 OVC
06:49 7.8 °C 3.7 °C 1020.2 hPa Calm     75 % 0.0 mm 0.0 W/m2 OVC
06:54 7.8 °C 3.7 °C 1020.5 hPa Calm     75 % 0.0 mm 5.0 W/m2 OVC
06:59 7.8 °C 3.9 °C 1020.5 hPa Calm     76 % 0.0 mm 9.0 W/m2 BKN
07:04 7.9 °C 3.9 °C 1020.5 hPa Calm     76 % 0.0 mm 11.0 W/m2 BKN
07:09 7.9 °C 3.7 °C 1020.5 hPa Calm     75 % 0.0 mm 12.0 W/m2 BKN
07:14 7.9 °C 3.7 °C 1020.5 hPa Calm     75 % 0.0 mm 14.0 W/m2 BKN
07:19 7.9 °C 3.8 °C 1020.9 hPa Calm     75 % 0.0 mm 18.0 W/m2 BKN
07:24 8.1 °C 3.9 °C 1020.9 hPa Calm     75 % 0.0 mm 23.0 W/m2 BKN
07:29 8.4 °C 4.0 °C 1020.9 hPa Calm     74 % 0.0 mm 33.0 W/m2 BKN
07:34 8.7 °C 4.3 °C 1020.9 hPa Calm     74 % 0.0 mm 39.0 W/m2 BKN
07:39 8.9 °C 4.4 °C 1020.9 hPa Calm     73 % 0.0 mm 56.0 W/m2 SCT
07:44 9.2 °C 4.4 °C 1021.2 hPa Calm     72 % 0.0 mm 72.0 W/m2 FEW
07:49 9.5 °C 4.7 °C 1021.2 hPa Calm     72 % 0.0 mm 84.0 W/m2 FEW
07:54 9.9 °C 4.9 °C 1021.2 hPa Calm     71 % 0.0 mm 102.0 W/m2 CLR
07:59 10.4 °C 5.0 °C 1021.2 hPa Calm     69 % 0.0 mm 120.0 W/m2 CLR
08:04 10.9 °C 5.0 °C 1021.2 hPa Calm     67 % 0.0 mm 134.0 W/m2 CLR
08:09 11.3 °C 5.2 °C 1021.2 hPa Calm     66 % 0.0 mm 151.0 W/m2 CLR
08:14 11.8 °C 5.4 °C 1021.2 hPa Calm     65 % 0.0 mm 174.0 W/m2 CLR
08:19 12.2 °C 5.3 °C 1021.2 hPa Calm     63 % 0.0 mm 193.0 W/m2 CLR
08:24 12.5 °C 5.7 °C 1020.9 hPa Calm     63 % 0.0 mm 211.0 W/m2 CLR
08:29 13.0 °C 5.7 °C 1020.9 hPa Calm     61 % 0.0 mm 229.0 W/m2 CLR
08:34 13.5 °C 5.9 °C 1020.9 hPa Calm     60 % 0.0 mm 248.0 W/m2 CLR
08:35 13.5 °C 5.9 °C 1020.9 hPa Calm     60 % 0.0 mm 248.0 W/m2 CLR
08:40 14.1 °C 6.2 °C 1020.9 hPa Calm     59 % 0.0 mm 262.0 W/m2 CLR
08:45 14.6 °C 6.7 °C 1021.2 hPa Calm     59 % 0.0 mm 279.0 W/m2 CLR
08:50 15.4 °C 6.7 °C 1020.9 hPa Calm     56 % 0.0 mm 294.0 W/m2 CLR
08:55 16.1 °C 7.0 °C 1020.9 hPa Calm     55 % 0.0 mm 313.0 W/m2 CLR
09:00 16.5 °C 6.9 °C 1021.2 hPa SSW 1.9 km/h   53 % 0.0 mm 329.0 W/m2 CLR
09:05 16.9 °C 6.7 °C 1021.2 hPa WNW 14.5 km/h 14.5 km/h 51 % 0.0 mm 346.0 W/m2 CLR
09:10 17.3 °C 6.8 °C 1021.2 hPa WNW 8.0 km/h 8.0 km/h 50 % 0.0 mm 360.0 W/m2 CLR
09:15 17.4 °C 6.6 °C 1021.2 hPa WNW 12.9 km/h 12.9 km/h 49 % 0.0 mm 380.0 W/m2 CLR
09:20 17.6 °C 6.8 °C 1020.9 hPa WNW 9.7 km/h 9.7 km/h 49 % 0.0 mm 394.0 W/m2 CLR
09:25 17.7 °C 6.9 °C 1020.9 hPa NW 12.9 km/h 13.2 km/h 49 % 0.0 mm 410.0 W/m2 CLR
09:30 17.8 °C 6.7 °C 1020.9 hPa NW 18.5 km/h 18.5 km/h 48 % 0.0 mm 378.0 W/m2 CLR
09:35 17.9 °C 6.8 °C 1020.9 hPa NNW 18.5 km/h 18.5 km/h 48 % 0.0 mm 47.0 W/m2 CLR
09:40 18.1 °C 6.9 °C 1020.9 hPa NW 14.8 km/h 14.8 km/h 48 % 0.0 mm 459.0 W/m2 CLR
09:45 18.3 °C 7.1 °C 1020.9 hPa NW 17.7 km/h 17.7 km/h 48 % 0.0 mm 475.0 W/m2 CLR
09:50 18.4 °C 6.9 °C 1020.9 hPa WNW 18.5 km/h 18.5 km/h 47 % 0.0 mm 489.0 W/m2 CLR
09:55 18.4 °C 6.9 °C 1020.9 hPa NW 20.4 km/h 20.4 km/h 47 % 0.0 mm 504.0 W/m2 CLR
10:00 18.3 °C 6.8 °C 1020.9 hPa NW 20.9 km/h 20.9 km/h 47 % 0.0 mm 522.0 W/m2 CLR
10:05 18.4 °C 6.9 °C 1020.9 hPa NW 24.1 km/h 24.1 km/h 47 % 0.0 mm 536.0 W/m2 CLR
10:10 18.6 °C 6.8 °C 1020.9 hPa NW 24.1 km/h 24.1 km/h 46 % 0.0 mm 550.0 W/m2 CLR
10:15 18.7 °C 7.2 °C 1020.9 hPa NW 20.9 km/h 20.9 km/h 47 % 0.0 mm 568.0 W/m2 CLR
10:20 18.8 °C 6.9 °C 1020.9 hPa NW 18.5 km/h 18.5 km/h 46 % 0.0 mm 582.0 W/m2 CLR
10:25 19.1 °C 6.9 °C 1020.9 hPa NW 20.9 km/h 20.9 km/h 45 % 0.0 mm 596.0 W/m2 CLR
10:30 19.1 °C 6.9 °C 1020.9 hPa NW 18.5 km/h 18.5 km/h 45 % 0.0 mm 610.0 W/m2 CLR
10:35 19.3 °C 7.1 °C 1020.9 hPa NW 22.2 km/h 22.2 km/h 45 % 0.0 mm 624.0 W/m2 CLR
10:40 19.3 °C 6.8 °C 1020.9 hPa NW 22.5 km/h 22.5 km/h 44 % 0.0 mm 638.0 W/m2 CLR
10:41 19.3 °C 7.1 °C 1020.9 hPa NW 22.2 km/h 22.2 km/h 45 % 0.0 mm 642.0 W/m2 CLR
10:46 19.5 °C 7.2 °C 1020.9 hPa NW 18.5 km/h 18.5 km/h 45 % 0.0 mm 654.0 W/m2 CLR
10:51 19.6 °C 7.0 °C 1020.9 hPa NNW 24.1 km/h 24.1 km/h 44 % 0.0 mm 668.0 W/m2 CLR
10:56 19.8 °C 7.2 °C 1020.9 hPa WNW 18.5 km/h 18.5 km/h 44 % 0.0 mm 682.0 W/m2 CLR
11:01 19.8 °C 6.9 °C 1020.9 hPa West 24.1 km/h 24.1 km/h 43 % 0.0 mm 691.0 W/m2 CLR
11:06 20.2 °C 7.2 °C 1020.9 hPa NNW 14.8 km/h 14.8 km/h 43 % 0.0 mm 705.0 W/m2 CLR
11:11 20.4 °C 7.4 °C 1020.9 hPa WNW 19.3 km/h 19.3 km/h 43 % 0.0 mm 717.0 W/m2 CLR
11:16 20.6 °C 7.2 °C 1020.9 hPa NNW 22.5 km/h 22.5 km/h 42 % 0.0 mm 731.0 W/m2 CLR
11:21 20.8 °C 7.8 °C 1020.9 hPa WNW 18.5 km/h 18.5 km/h 43 % 0.0 mm 738.0 W/m2 CLR
11:26 21.0 °C 7.9 °C 1020.9 hPa WNW 18.5 km/h 18.5 km/h 43 % 0.0 mm 752.0 W/m2 CLR
11:31 21.1 °C 7.3 °C 1020.9 hPa WNW 16.7 km/h 16.7 km/h 41 % 0.0 mm 761.0 W/m2 CLR
11:36 21.3 °C 7.1 °C 1020.9 hPa WNW 18.5 km/h 18.5 km/h 40 % 0.0 mm 775.0 W/m2 CLR
11:41 21.3 °C 7.2 °C 1020.9 hPa NNW 22.2 km/h 22.2 km/h 40 % 0.0 mm 788.0 W/m2 CLR
11:46 21.4 °C 7.2 °C 1020.9 hPa North 22.2 km/h 22.2 km/h 40 % 0.0 mm 795.0 W/m2 CLR
11:51 21.4 °C 7.2 °C 1020.9 hPa North 16.7 km/h 16.7 km/h 40 % 0.0 mm 803.0 W/m2 CLR
11:56 21.6 °C 7.1 °C 1020.9 hPa NNW 24.1 km/h 24.1 km/h 39 % 0.0 mm 812.0 W/m2 CLR
12:01 21.8 °C 7.2 °C 1020.9 hPa NNW 20.4 km/h 20.4 km/h 39 % 0.0 mm 823.0 W/m2 CLR
12:07 21.9 °C 7.3 °C 1020.9 hPa NW 29.6 km/h 29.6 km/h 39 % 0.0 mm 835.0 W/m2 CLR
12:12 21.8 °C 7.3 °C 1020.5 hPa NW 14.8 km/h 14.8 km/h 39 % 0.0 mm 844.0 W/m2 CLR
12:17 22.2 °C 7.6 °C 1020.5 hPa North 3.7 km/h 3.7 km/h 39 % 0.0 mm 853.0 W/m2 CLR
12:22 22.2 °C 6.8 °C 1020.5 hPa North 24.1 km/h 24.1 km/h 37 % 0.0 mm 854.0 W/m2 CLR
12:27 22.3 °C 7.3 °C 1020.5 hPa WNW 24.1 km/h 24.1 km/h 38 % 0.0 mm 867.0 W/m2 CLR
12:32 22.4 °C 7.4 °C 1020.5 hPa WNW 3.7 km/h 3.7 km/h 38 % 0.0 mm 886.0 W/m2 CLR
12:37 22.6 °C 7.6 °C 1020.5 hPa NW 14.8 km/h 14.8 km/h 38 % 0.0 mm 884.0 W/m2 CLR
12:42 22.7 °C 7.3 °C 1020.5 hPa NNW 22.5 km/h 22.5 km/h 37 % 0.0 mm 896.0 W/m2 CLR
12:47 22.5 °C 7.1 °C 1020.5 hPa NNW 19.3 km/h 19.3 km/h 37 % 0.0 mm 907.0 W/m2 CLR
12:48 22.5 °C 7.4 °C 1020.5 hPa North 14.8 km/h 14.8 km/h 38 % 0.0 mm 912.0 W/m2 CLR
12:53 22.4 °C 7.4 °C 1020.2 hPa North 20.4 km/h 20.4 km/h 38 % 0.0 mm 925.0 W/m2 CLR
12:58 22.7 °C 7.2 °C 1020.2 hPa North 18.5 km/h 18.5 km/h 37 % 0.0 mm 911.0 W/m2 CLR
13:03 22.9 °C 7.4 °C 1020.2 hPa WNW 20.4 km/h 20.4 km/h 37 % 0.0 mm 918.0 W/m2 CLR
13:08 23.1 °C 7.6 °C 1020.2 hPa NNE 14.8 km/h 14.8 km/h 37 % 0.0 mm 944.0 W/m2 CLR
13:13 23.2 °C 6.9 °C 1019.9 hPa NW 18.5 km/h 18.5 km/h 35 % 0.0 mm 944.0 W/m2 CLR
13:18 23.5 °C 7.2 °C 1019.9 hPa NNW 22.5 km/h 22.5 km/h 35 % 0.0 mm 944.0 W/m2 CLR
13:23 23.3 °C 7.0 °C 1019.9 hPa NNW 31.5 km/h 31.5 km/h 35 % 0.0 mm 944.0 W/m2 CLR
13:28 23.2 °C 6.5 °C 1019.9 hPa North 22.2 km/h 22.2 km/h 34 % 0.0 mm 962.0 W/m2 CLR
13:33 23.4 °C 5.7 °C 1019.9 hPa WNW 31.5 km/h 31.5 km/h 32 % 0.0 mm 1023.0 W/m2 CLR
13:38 23.4 °C 5.7 °C 1019.9 hPa NW 13.0 km/h 13.0 km/h 32 % 0.0 mm 1056.0 W/m2 CLR
13:43 23.7 °C 6.4 °C 1019.9 hPa NW 25.9 km/h 25.9 km/h 33 % 0.0 mm 1079.0 W/m2 CLR
13:48 23.4 °C 6.2 °C 1019.5 hPa North 18.5 km/h 18.5 km/h 33 % 0.0 mm 327.0 W/m2 CLR
13:53 23.3 °C 6.2 °C 1019.5 hPa North 31.5 km/h 31.5 km/h 33 % 0.0 mm 977.0 W/m2 CLR
13:58 23.7 °C 5.6 °C 1019.5 hPa NW 22.2 km/h 22.2 km/h 31 % 0.0 mm 958.0 W/m2 CLR
14:03 23.5 °C 6.3 °C 1019.5 hPa NNW 35.2 km/h 35.2 km/h 33 % 0.0 mm 951.0 W/m2 CLR
14:13 23.9 °C 6.2 °C 1019.5 hPa NNW 20.4 km/h 20.4 km/h 32 % 0.0 mm 953.0 W/m2 CLR
14:18 24.3 °C 6.5 °C 1019.5 hPa WNW 27.8 km/h 27.8 km/h 32 % 0.0 mm 969.0 W/m2 CLR
14:23 23.9 °C 6.2 °C 1019.5 hPa NW 16.7 km/h 16.7 km/h 32 % 0.0 mm 970.0 W/m2 CLR
14:28 24.1 °C 6.8 °C 1019.2 hPa NW 37.0 km/h 37.0 km/h 33 % 0.0 mm 937.0 W/m2 CLR
14:33 24.2 °C 6.9 °C 1019.2 hPa WNW 24.1 km/h 24.1 km/h 33 % 0.0 mm 939.0 W/m2 CLR
14:38 24.2 °C 6.5 °C 1019.2 hPa NW 14.5 km/h 14.5 km/h 32 % 0.0 mm 930.0 W/m2 CLR
14:43 24.4 °C 6.6 °C 1019.2 hPa NW 22.2 km/h 22.2 km/h 32 % 0.0 mm 921.0 W/m2 CLR
14:48 24.5 °C 6.3 °C 1019.2 hPa NW 27.8 km/h 27.8 km/h 31 % 0.0 mm 914.0 W/m2 CLR
14:53 24.6 °C 5.3 °C 1018.8 hPa WNW 20.4 km/h 20.4 km/h 29 % 0.0 mm 912.0 W/m2 CLR
14:58 24.4 °C 5.7 °C 1018.8 hPa NNW 27.8 km/h 27.8 km/h 30 % 0.0 mm 905.0 W/m2 CLR
15:03 24.4 °C 5.2 °C 1018.8 hPa WNW 24.1 km/h 24.1 km/h 29 % 0.0 mm 902.0 W/m2 CLR
15:08 24.3 °C 5.6 °C 1018.8 hPa North 18.5 km/h 18.5 km/h 30 % 0.0 mm 893.0 W/m2 CLR
15:13 24.4 °C 5.2 °C 1018.8 hPa NNW 20.4 km/h 20.4 km/h 29 % 0.0 mm 886.0 W/m2 CLR
15:18 24.6 °C 5.4 °C 1018.8 hPa North 27.8 km/h 27.8 km/h 29 % 0.0 mm 881.0 W/m2 CLR
15:19 24.6 °C 5.4 °C 1018.8 hPa North 27.8 km/h 27.8 km/h 29 % 0.0 mm 881.0 W/m2 CLR
15:24 24.3 °C 5.6 °C 1018.8 hPa NW 18.5 km/h 18.5 km/h 30 % 0.0 mm 875.0 W/m2 CLR
15:25 24.3 °C 5.6 °C 1018.8 hPa North 18.5 km/h 18.5 km/h 30 % 0.0 mm 872.0 W/m2 CLR
15:30 24.6 °C 5.8 °C 1018.8 hPa NW 25.9 km/h 25.9 km/h 30 % 0.0 mm 865.0 W/m2 CLR
15:35 24.6 °C 5.4 °C 1018.5 hPa NNW 29.0 km/h 29.0 km/h 29 % 0.0 mm 856.0 W/m2 CLR
15:40 24.8 °C 5.1 °C 1018.5 hPa NW 24.1 km/h 24.1 km/h 28 % 0.0 mm 853.0 W/m2 CLR
15:45 24.8 °C 5.1 °C 1018.5 hPa NNW 29.6 km/h 29.6 km/h 28 % 0.0 mm 842.0 W/m2 CLR
15:50 24.9 °C 5.6 °C 1018.5 hPa NW 29.6 km/h 29.6 km/h 29 % 0.0 mm 833.0 W/m2 CLR
15:55 24.9 °C 5.6 °C 1018.5 hPa NW 22.5 km/h 22.5 km/h 29 % 0.0 mm 824.0 W/m2 CLR
16:00 24.8 °C 5.1 °C 1018.5 hPa North 31.5 km/h 31.5 km/h 28 % 0.0 mm 816.0 W/m2 CLR
16:05 24.7 °C 5.0 °C 1018.2 hPa North 18.5 km/h 18.5 km/h 28 % 0.0 mm 807.0 W/m2 CLR
16:10 24.8 °C 4.6 °C 1018.2 hPa NNW 18.5 km/h 18.5 km/h 27 % 0.0 mm 796.0 W/m2 CLR
16:15 25.0 °C 5.2 °C 1017.8 hPa North 22.5 km/h 22.5 km/h 28 % 0.0 mm 788.0 W/m2 CLR
16:20 25.1 °C 4.7 °C 1017.8 hPa NNE 18.5 km/h 18.7 km/h 27 % 0.0 mm 775.0 W/m2 CLR
16:25 24.9 °C 5.1 °C 1017.8 hPa NW 33.3 km/h 33.3 km/h 28 % 0.0 mm 768.0 W/m2 CLR
16:30 24.9 °C 5.2 °C 1017.8 hPa NNW 29.6 km/h 29.6 km/h 28 % 0.0 mm 756.0 W/m2 CLR
16:35 24.9 °C 4.7 °C 1017.8 hPa North 27.8 km/h 27.8 km/h 27 % 0.0 mm 745.0 W/m2 CLR
16:37 24.8 °C 4.6 °C 1017.8 hPa NNW 14.8 km/h 14.8 km/h 27 % 0.0 mm 740.0 W/m2 CLR
16:42 25.1 °C 5.3 °C 1017.8 hPa WNW 7.4 km/h 7.4 km/h 28 % 0.0 mm 729.0 W/m2 CLR
16:47 25.2 °C 5.3 °C 1017.8 hPa NNW 20.4 km/h 20.4 km/h 28 % 0.0 mm 714.0 W/m2 CLR
16:52 25.3 °C 5.4 °C 1017.8 hPa NNW 27.8 km/h 27.8 km/h 28 % 0.0 mm 703.0 W/m2 CLR
16:57 25.2 °C 4.8 °C 1017.5 hPa NNW 35.2 km/h 35.2 km/h 27 % 0.0 mm 693.0 W/m2 CLR
17:02 25.4 °C 5.1 °C 1017.5 hPa NW 24.1 km/h 24.1 km/h 27 % 0.0 mm 680.0 W/m2 CLR
17:07 25.3 °C 5.0 °C 1017.5 hPa NNW 24.1 km/h 24.1 km/h 27 % 0.0 mm 664.0 W/m2 CLR
17:12 25.2 °C 4.8 °C 1017.5 hPa North 20.4 km/h 20.4 km/h 27 % 0.0 mm 650.0 W/m2 CLR
17:17 25.2 °C 5.3 °C 1017.5 hPa NNE 18.5 km/h 18.5 km/h 28 % 0.0 mm 640.0 W/m2 CLR
17:18 25.2 °C 4.9 °C 1017.5 hPa NNW 25.9 km/h 25.9 km/h 27 % 0.0 mm 638.0 W/m2 CLR
17:23 25.2 °C 4.9 °C 1017.5 hPa NW 29.6 km/h 29.6 km/h 27 % 0.0 mm 622.0 W/m2 CLR
17:28 25.4 °C 5.6 °C 1017.5 hPa NW 18.5 km/h 18.5 km/h 28 % 0.0 mm 610.0 W/m2 CLR
17:33 25.4 °C 5.0 °C 1017.2 hPa NNW 18.5 km/h 18.5 km/h 27 % 0.0 mm 594.0 W/m2 CLR
17:38 25.6 °C 5.2 °C 1017.5 hPa North 25.9 km/h 25.9 km/h 27 % 0.0 mm 580.0 W/m2 CLR
17:43 25.6 °C 5.2 °C 1017.2 hPa NNW 25.9 km/h 25.9 km/h 27 % 0.0 mm 564.0 W/m2 CLR
17:45 25.6 °C 5.2 °C 1017.2 hPa NW 25.9 km/h 25.9 km/h 27 % 0.0 mm 559.0 W/m2 CLR
Lo Temps de Massalio
Compliments of Weather Underground - 1 mb